Вернуться в каталог

CZ-6A DEB

АктивенPO
NORAD 61454·DEBRIS·🇨🇳 China

Запущен Aug 6, 2024 с Taiyuan Satellite Launch Center

Loading…

Ближайшие Пролёты (ближайшие 24 часа)

TLE

СвежийSource: Space-Track

Эпоха: Sep 14, 2026, 08:23 UTC

1 61454U 24140ZL  26257.34960850  .00003466  00000-0  12864-2 0  9990
2 61454  88.6122 227.7546 0024530 267.4992  92.3396 14.31849838106676

Отслеживайте CZ-6A DEB в реальном времени с AllMySat

Download on the App Store